Total_Precipitation_Accumulation
1.22 1.18 1.06 0.86 0.75 0.76 0.77 0.73 0.68 0.71 0.66 0.68 0.66 0.70 0.80 0.79 0.79 0.87 0.92 0.93 0.98 1.07 1.13 1.14 1.27 1.42 1.51 1.55 1.56 1.52 1.49 1.36 1.13 0.98 0.76 0.59 0.60 0.59 0.62 0.54 0.56 0.61 0.54
0.93 0.84 0.72 0.57 0.51 0.56 0.57 0.52 0.44 0.47 0.44 0.51 0.55 0.54 0.69 0.85 0.87 0.89 0.89 0.84 0.85 0.86 0.91 0.97 1.09 1.14 1.22 1.36 1.48 1.45 1.46 1.46 1.29 1.14 0.95 0.77 0.69 0.65 0.72 0.73 0.71 0.69 0.68
0.87 0.72 0.64 0.57 0.54 0.53 0.47 0.40 0.32 0.31 0.33 0.38 0.51 0.50 0.54 0.71 0.82 0.81 0.76 0.74 0.76 0.77 0.80 0.84 0.89 0.98 1.09 1.13 1.23 1.33 1.38 1.39 1.37 1.25 1.17 1.06 0.89 0.78 0.80 0.78 0.84 0.94 0.93
1.05 0.84 0.72 0.66 0.56 0.47 0.37 0.34 0.29 0.32 0.36 0.35 0.35 0.37 0.43 0.53 0.65 0.65 0.62 0.61 0.61 0.64 0.74 0.81 0.85 0.88 0.94 1.01 1.07 1.18 1.30 1.35 1.32 1.23 1.18 1.13 1.04 0.99 0.95 0.91 0.98 1.09 1.14
0.73 0.54 0.46 0.44 0.39 0.31 0.25 0.23 0.22 0.22 0.22 0.24 0.21 0.22 0.27 0.34 0.39 0.39 0.45 0.51 0.55 0.59 0.68 0.74 0.76 0.72 0.74 0.81 0.81 0.95 1.11 1.24 1.26 1.27 1.20 1.12 1.04 1.01 0.98 0.97 1.02 1.17 1.24
0.35 0.29 0.25 0.21 0.18 0.16 0.15 0.15 0.11 0.09 0.09 0.14 0.14 0.16 0.20 0.22 0.26 0.24 0.28 0.41 0.51 0.56 0.62 0.66 0.72 0.72 0.68 0.64 0.63 0.69 0.83 0.94 1.04 1.13 1.15 1.09 1.03 1.00 1.04 1.11 1.10 1.17 1.31
0.08 0.07 0.06 0.07 0.07 0.06 0.06 0.07 0.07 0.06 0.06 0.08 0.08 0.13 0.17 0.13 0.15 0.14 0.24 0.45 0.50 0.51 0.50 0.62 0.72 0.77 0.80 0.84 0.71 0.67 0.70 0.73 0.79 0.90 0.97 0.97 0.98 0.99 1.00 1.07 1.15 1.17 1.09
0.01 0.01 0.01 0.02 0.03 0.04 0.05 0.05 0.03 0.02 0.03 0.07 0.08 0.14 0.14 0.09 0.10 0.13 0.19 0.36 0.45 0.43 0.44 0.54 0.69 0.80 0.84 0.85 0.79 0.83 0.81 0.72 0.66 0.70 0.85 0.90 0.91 1.02 1.10 1.17 1.24 1.21 1.19
0.00 0.00 0.00 0.00 0.01 0.02 0.02 0.02 0.01 0.01 0.02 0.05 0.09 0.10 0.07 0.04 0.06 0.10 0.18 0.35 0.43 0.44 0.41 0.49 0.65 0.73 0.83 0.84 0.80 0.90 0.91 0.74 0.63 0.68 0.72 0.78 0.86 0.97 1.10 1.17 1.20 1.17 1.19
0.00 0.00 0.00 0.00 0.00 0.01 0.01 0.01 0.01 0.01 0.01 0.02 0.04 0.06 0.05 0.06 0.05 0.05 0.12 0.23 0.32 0.40 0.41 0.45 0.66 0.72 0.74 0.71 0.72 0.92 1.02 0.89 0.64 0.59 0.64 0.75 0.81 0.93 1.13 1.22 1.32 1.24 1.07
0.00 0.00 0.00 0.00 0.00 0.02 0.03 0.02 0.01 0.01 0.01 0.01 0.02 0.03 0.03 0.03 0.05 0.05 0.10 0.12 0.16 0.22 0.27 0.33 0.37 0.49 0.52 0.56 0.66 0.77 0.87 0.77 0.68 0.75 0.84 0.86 0.92 0.96 1.01 1.11 1.27 1.34 1.17
0.00 0.00 0.00 0.01 0.01 0.02 0.05 0.04 0.02 0.01 0.01 0.01 0.02 0.03 0.03 0.03 0.03 0.03 0.06 0.07 0.09 0.13 0.17 0.23 0.27 0.36 0.41 0.47 0.54 0.58 0.61 0.66 0.71 0.83 0.85 0.78 0.82 0.88 0.86 0.92 1.04 1.12 0.98
0.00 0.00 0.00 0.00 0.01 0.02 0.02 0.02 0.02 0.01 0.01 0.01 0.02 0.03 0.04 0.05 0.03 0.03 0.03 0.04 0.05 0.07 0.10 0.17 0.21 0.29 0.30 0.36 0.44 0.44 0.52 0.73 0.82 0.76 0.74 0.72 0.71 0.73 0.70 0.77 0.94 1.04 0.95
0.00 0.00 0.00 0.00 0.01 0.02 0.01 0.01 0.01 0.01 0.01 0.02 0.02 0.03 0.04 0.07 0.03 0.01 0.03 0.05 0.07 0.09 0.11 0.15 0.19 0.27 0.30 0.33 0.38 0.46 0.55 0.68 0.80 0.67 0.57 0.59 0.59 0.65 0.70 0.68 0.74 0.80 0.90
0.00 0.00 0.00 0.00 0.01 0.02 0.01 0.00 0.00 0.00 0.00 0.01 0.01 0.03 0.02 0.02 0.01 0.01 0.02 0.04 0.07 0.08 0.12 0.21 0.32 0.43 0.43 0.44 0.49 0.53 0.56 0.52 0.57 0.53 0.52 0.57 0.59 0.60 0.65 0.66 0.65 0.62 0.62
0.00 0.00 0.00 0.00 0.01 0.01 0.02 0.01 0.00 0.00 0.01 0.01 0.00 0.01 0.01 0.01 0.01 0.04 0.07 0.06 0.07 0.09 0.18 0.24 0.36 0.50 0.54 0.56 0.56 0.57 0.59 0.54 0.52 0.47 0.49 0.50 0.50 0.49 0.50 0.57 0.62 0.64 0.57
0.00 0.00 0.00 0.00 0.00 0.00 0.01 0.03 0.02 0.01 0.00 0.00 0.00 0.00 0.00 0.01 0.02 0.03 0.06 0.08 0.11 0.18 0.20 0.26 0.43 0.49 0.45 0.45 0.50 0.52 0.48 0.38 0.36 0.35 0.30 0.31 0.32 0.32 0.32 0.38 0.46 0.51 0.50
0.00 0.00 0.00 0.00 0.00 0.00 0.00 0.01 0.01 0.03 0.04 0.03 0.01 0.00 0.00 0.00 0.01 0.02 0.04 0.07 0.14 0.19 0.22 0.35 0.48 0.50 0.44 0.36 0.31 0.27 0.23 0.18 0.17 0.19 0.18 0.18 0.22 0.25 0.25 0.26 0.30 0.32 0.36
0.00 0.00 0.00 0.00 0.00 0.00 0.00 0.00 0.00 0.01 0.01 0.03 0.03 0.02 0.01 0.01 0.01 0.01 0.03 0.05 0.08 0.10 0.17 0.26 0.33 0.39 0.32 0.19 0.12 0.09 0.07 0.08 0.09 0.11 0.13 0.14 0.14 0.17 0.20 0.22 0.23 0.27 0.28
0.00 0.00 0.00 0.00 0.00 0.00 0.00 0.00 0.00 0.00 0.01 0.01 0.01 0.01 0.02 0.02 0.02 0.02 0.02 0.02 0.04 0.04 0.05 0.07 0.10 0.09 0.07 0.04 0.04 0.04 0.03 0.05 0.06 0.06 0.08 0.09 0.10 0.13 0.16 0.17 0.17 0.18 0.20
0.00 0.00 0.00 0.00 0.00 0.00 0.00 0.01 0.01 0.01 0.01 0.01 0.00 0.00 0.00 0.01 0.02 0.02 0.02 0.02 0.02 0.02 0.02 0.02 0.02 0.02 0.01 0.02 0.02 0.03 0.03 0.04 0.05 0.05 0.06 0.07 0.09 0.10 0.14 0.15 0.15 0.14 0.14
0.00 0.00 0.00 0.00 0.00 0.00 0.00 0.00 0.01 0.01 0.01 0.01 0.01 0.00 0.00 0.01 0.01 0.02 0.02 0.02 0.02 0.02 0.02 0.03 0.03 0.03 0.03 0.03 0.03 0.03 0.04 0.04 0.05 0.06 0.06 0.07 0.08 0.09 0.10 0.11 0.12 0.12 0.11
0.00 0.00 0.00 0.00 0.00 0.00 0.00 0.00 0.00 0.01 0.01 0.01 0.01 0.01 0.01 0.01 0.01 0.02 0.01 0.02 0.02 0.02 0.02 0.03 0.04 0.04 0.04 0.05 0.05 0.05 0.04 0.04 0.05 0.07 0.09 0.09 0.08 0.08 0.09 0.09 0.09 0.10 0.09
0.00 0.00 0.00 0.00 0.00 0.00 0.00 0.00 0.00 0.00 0.00 0.01 0.01 0.01 0.01 0.01 0.01 0.01 0.01 0.01 0.01 0.01 0.02 0.02 0.03 0.03 0.04 0.05 0.06 0.06 0.06 0.06 0.06 0.07 0.09 0.12 0.11 0.09 0.09 0.09 0.09 0.10 0.09
0.00 0.00 0.00 0.00 0.00 0.00 0.00 0.00 0.00 0.00 0.00 0.00 0.01 0.01 0.01 0.01 0.01 0.01 0.01 0.00 0.01 0.01 0.01 0.02 0.02 0.03 0.03 0.04 0.06 0.07 0.10 0.09 0.07 0.07 0.08 0.11 0.12 0.13 0.11 0.10 0.10 0.11 0.11
0.00 0.00 0.00 0.00 0.00 0.00 0.00 0.00 0.00 0.00 0.00 0.01 0.01 0.01 0.01 0.01 0.01 0.01 0.00 0.00 0.00 0.01 0.01 0.02 0.02 0.02 0.03 0.04 0.05 0.08 0.09 0.08 0.07 0.07 0.08 0.10 0.12 0.14 0.15 0.14 0.12 0.12 0.12